This is the latest recevied weather packets stored in our database for station/object KI6AOK. If no packets are shown the sender has not sent any weather packets the latest 10 day(s).
| Time | Temp. | Humidity | Pressure | Rain* | Wind** | Luminosity | Snow |
|---|---|---|---|---|---|---|---|
| 1777931046 | 20.56° C | 46% | 1015.5 hPa | 0 mm | - | 683 W/m² | - |
| 1777930742 | 21.11° C | 43% | 1015.4 hPa | 0 mm | - | 722 W/m² | - |
| 1777930438 | 20.56° C | 46% | 1015.2 hPa | 0 mm | - | 761 W/m² | - |
| 1777930136 | 20° C | 44% | 1015.6 hPa | 0 mm | - | 761 W/m² | - |
| 1777929831 | 20.56° C | 44% | 1015.4 hPa | 0 mm | - | 644 W/m² | - |
| 1777929530 | 20.56° C | 44% | 1015.6 hPa | 0 mm | - | 580 W/m² | - |
| 1777929225 | 20.56° C | 44% | 1015.7 hPa | 0 mm | - | 855 W/m² | - |
| 1777928923 | 20° C | 48% | 1015.6 hPa | 0 mm | - | 825 W/m² | - |
| 1777928620 | 20.56° C | 45% | 1015.5 hPa | 0 mm | - | 818 W/m² | - |
| 1777928317 | 20.56° C | 44% | 1015.8 hPa | 0 mm | - | 786 W/m² | - |
| 1777928015 | 21.11° C | 44% | 1015.6 hPa | 0 mm | - | 847 W/m² | - |
| 1777927713 | 20.56° C | 47% | 1015.6 hPa | 0 mm | - | 867 W/m² | - |
| 1777927411 | 20.56° C | 44% | 1015.7 hPa | 0 mm | - | 799 W/m² | - |
| 1777927110 | 20.56° C | 43% | 1015.5 hPa | 0 mm | - | 798 W/m² | - |
| 1777926807 | 20.56° C | 43% | 1015.8 hPa | 0 mm | - | 813 W/m² | - |
| 1777926502 | 20.56° C | 44% | 1015.7 hPa | 0 mm | - | 770 W/m² | - |
| 1777926200 | 21.11° C | 45% | 1015.6 hPa | 0 mm | - | 851 W/m² | - |
| 1777925896 | 20.56° C | 46% | 1015.7 hPa | 0 mm | - | 878 W/m² | - |
| 1777925594 | 20.56° C | 44% | 1015.8 hPa | 0 mm | - | 815 W/m² | - |
| 1777925291 | 20.56° C | 46% | 1015.8 hPa | 0 mm | - | 841 W/m² | - |
| 1777924987 | 20° C | 49% | 1015.8 hPa | 0 mm | - | 816 W/m² | - |
| 1777924683 | 20.56° C | 45% | 1015.7 hPa | 0 mm | - | 751 W/m² | - |
| 1777924379 | 20° C | 50% | 1015.6 hPa | 0 mm | - | 691 W/m² | - |
| 1777924077 | 19.44° C | 47% | 1015.9 hPa | 0 mm | - | 784 W/m² | - |
| 1777923773 | 20° C | 47% | 1015.8 hPa | 0 mm | - | 673 W/m² | - |
* Rain latest hour (hover to see other rain measurements)
** Current wind speed in m/s (hover to see current wind gust speed)